Weather Roundup
Issued by NWS

Home | Current Version | Previous Version | Text Only | Print | Product List | Glossary On
Versions: 1 2 3 4 5 6 7 8 9 10 11 12 13 14 15 16 17 18 19 20 21 22 23 24 25 26 27 28 29 30 31 32 33 34 35 36 37 38 39 40 41 42 43 44 45 46 47 48 49 50
000
NZUS93 KARX 021110
HRRWXR

CURRENT HOURLY OBSERVATIONS ACROSS
MUCH OF THE UPPER MISSISSIPPI VALLEY
NATIONAL WEATHER SERVICE LA CROSSE WI
600 AM CDT SUN AUG 02 2015


...SOUTHEAST MINNESOTA...


CITY           SKY/WX    TMP DP  RH WIND       PRES   REMARKS
ROCHESTER      PTCLDY    70  66  87 SW16      29.73F
ROCHESTER/MAYO FAIR      71  67  86 SW18G24   29.71F
WINONA         CLEAR     73  68  83 SW8       29.70F
AUSTIN         PTCLDY    72  66  83 SW8       29.75F
ALBERT LEA     CLEAR     72  68  88 SW12G17   29.73F
DODGE CENTER   PTCLDY    68  64  88 SW15      29.71F
PRESTON        MOCLDY    70  65  86 SW12      29.76F
OWATONNA       CLEAR     70  64  83 S13G20    29.70F
FARIBAULT      CLEAR     70  64  83 S8        29.69S
$$

...ELSEWHERE IN MINNESOTA...


CITY           SKY/WX    TMP DP  RH WIND       PRES   REMARKS
MINNEAPOLIS    PTCLDY    73  63  70 W14G21    29.65R
INTNL FALLS    MOCLDY    58  57  97 NW5       29.64R
DULUTH         PTCLDY    64  55  72 N5        29.64F
RED WING       CLEAR     73  63  68 SW9G22    29.64F
REDWOOD FALLS  CLEAR     69  62  78 SW9       29.68F
MANKATO        CLEAR     70  63  78 SW8       29.71R
WORTHINGTON    CLEAR     66  61  82 SW14G20   29.77S
FAIRMONT       CLEAR     70  63  78 SW12      29.75R
$$

...SOUTHWEST WISCONSIN...


CITY           SKY/WX    TMP DP  RH WIND       PRES   REMARKS
LA CROSSE      MOCLDY    74  68  81 VRB6      29.71F
PRAIRIE DU CHI PTCLDY    73  67  79 SW7       29.77S
BOSCOBEL       CLEAR     69  67  93 SW3       29.78S
LONE ROCK      PTCLDY    69  66  90 CALM      29.78F
PLATTEVILLE    PTCLDY    70  69  96 SW7       29.82S
FORT MC COY    PTCLDY    71  66  87 CALM      29.73F
CAMP DOUGLAS   PTCLDY    73  73 100 SW7       29.72F
VIROQUA        FAIR      71  70  97 SW9       29.78S
WIS DELLS      MOCLDY    72  67  84 SW13      29.75F
$$

...ELSEWHERE IN WISCONSIN...


CITY           SKY/WX    TMP DP  RH WIND       PRES   REMARKS
MILWAUKEE      CLOUDY    73  66  78 NW7       29.80F
MADISON        MOCLDY    74  68  81 VRB6      29.78F
GREEN BAY      LGT RAIN  68  65  90 S5        29.74S
EAU CLAIRE     CLEAR     68  65  90 S8        29.65F
BLACK RVR FLS  FAIR      68  68 100 S3        29.70F
MEDFORD        CLEAR     65  64  96 S7        29.70R
WAUSAU         PTCLDY    65  64  97 E5        29.68F
WIS RAPIDS     PTCLDY    69  65  86 S6        29.72F
MARSHFIELD     PTCLDY    65  62  90 SW7       29.70F FOG
RICE LAKE      MOCLDY    66  63  90 CALM      29.71R
$$

...NORTHEAST IOWA...


CITY           SKY/WX    TMP DP  RH WIND       PRES   REMARKS
DECORAH        MOCLDY    72  68  88 VRB7G17   29.78S
MASON CITY     CLEAR     71  65  81 SW21G26   29.79F
CHARLES CITY   PTCLDY    70  70 100 SW9       29.79S
OELWEIN          N/A     70  66  88 SW7       29.81S
$$

...ELSEWHERE IN IOWA...


CITY           SKY/WX    TMP DP  RH WIND       PRES   REMARKS
DES MOINES     CLOUDY    74  62  66 SW10      29.83S
IOWA CITY      CLEAR     68  66  93 S7        29.86R
FORT DODGE     PTCLDY    66  63  88 SW9       29.82S
$$

...NORTHERN ILLINOIS...


CITY           SKY/WX    TMP DP  RH WIND       PRES   REMARKS
CHICAGO-OHARE  PTCLDY    72  67  84 SW8       29.85F
CHICAGO-MIDWAY PTCLDY    73  66  78 SW7       29.86F
MOLINE         CLEAR     70  66  87 SW3       29.85F
ROCKFORD       MOCLDY    70  66  87 S9        29.85F
PEORIA         CLEAR     70  65  84 S7        29.90F
$$

NOTE: "FAIR" INDICATES FEW OR NO CLOUDS BELOW 12,000 FEET WITH NO
SIGNIFICANT WEATHER AND/OR OBSTRUCTIONS TO VISIBILITY. WIND
SPEEDS ARE IN MILES-PER-HOUR.



USA.gov is the U.S. government's official web portal to all federal, state and local government web resources and services.